Rbgn^[z[y[W
メイン
   新天体発見情報
     Comet C/2016 T1 (Matheny)
投稿するにはまず登録を

スレッド表示 | 新しいものから 前のトピック | 次のトピック | 下へ
投稿者 スレッド
佐藤裕久
投稿日時: 2016-10-17 19:00
モデレータ
登録日: 2005-6-12
居住地: 日本
投稿: 2505
オンライン
Comet C/2016 T1 (Matheny)

Rose G. Mathenyの通報によると、10月6日、透明度の低い空の中、Mt Lemmonサーベイのコース上に1.5-m
反射望遠鏡で得たCCD画像からコンパクトでおよそ6"-8"のコマのある彗星を発見した。
4枚追加し30秒露出では、p.a. 55°に向かった扇形の尾が見える。10月11.1日UT、Mathenyが得たフォロー 
アップ露出では、p.a. 90-105°に向かってかすかに広い尾が見える。測定された光度は18.3-18.4等。
小惑星センターのPCCP webpageに公表後、 W. H. RyanとE. V. Ryan (Magdalena Ridge天文台, Socorro,
2.4-m f/8.9 反射望遠鏡)や佐藤英貴氏 (東京都文京区, iTelescope天文台, 0.43 m f/6.8, アストロ
グラフ+輝度フィルター, Nerpio, スペイン, 遠隔操作)らCCD位置観測者によって彗星状と観測された。

発見位置は次のとおり、

     2016 UT             R.A. (2000) Decl.       Mag.   Observer
     Oct.  6.09330   18 35 12.35   +32 48 12.7   18.4   Matheny
           6.09759   18 35 12.05   +32 48 04.2   18.4     "
           6.10188   18 35 11.74   +32 47 55.9   18.1     "
           6.10617   18 35 11.47   +32 47 47.7   18.2     "
           6.14426   18 35 08.96   +32 46 32.3   18.3     "
           6.14704   18 35 08.73   +32 46 27.0   18.4     "
           6.14993   18 35 08.49   +32 46 21.6   18.5     "
           6.15359   18 35 08.14   +32 46 13.8            "

暫定放物線軌道要素と位置推算表は次のとおり、

Orbital elements:
    C/2016 T1 (Matheny)
T 2017 Jan. 30.59971 TT                                 MPCW
q   2.3156390            (2000.0)            P               Q
                   Peri.  136.62774     -0.03695886     -0.76765586
                   Node    56.35522     -0.98849274     -0.06589250
e   1.0            Incl.  129.77758     +0.14668385     -0.63746581
From 93 observations 2016 Oct. 6-11.

Ephemeris:
    C/2016 T1 (Matheny)
Date    TT    R. A. (2000) Decl.     Delta      r     Elong.  Phase   m1
2016 09 11    19 24 00.6 +46 50 14   2.3280  2.7993   107.4    20.1  19.3
...
2016 09 26    18 49 18.5 +38 27 34   2.3808  2.7116    98.2    21.5  19.2
...
2016 10 04    18 37 38.0 +33 57 07   2.4403  2.6673    91.9    22.0  19.2
...
2016 10 10    18 31 17.1 +30 42 40   2.4956  2.6354    86.8    22.2  19.2
2016 10 11    18 30 23.9 +30 11 12   2.5055  2.6302    85.9    22.2  19.2
2016 10 12    18 29 33.4 +29 40 03   2.5156  2.6251    85.1    22.3  19.2
...
2016 10 18    18 25 22.8 +26 39 50   2.5791  2.5947    79.8    22.2  19.2
...
2016 10 26    18 21 48.2 +22 58 35   2.6694  2.5562    72.7    21.8  19.2
...
2016 11 10    18 19 39.7 +17 04 02   2.8403  2.4905    59.6    20.1  19.2

(CBET 4328、MPEC 2016-T117)
スレッド表示 | 新しいものから 前のトピック | 次のトピック | トップ

投稿するにはまず登録を
 
© 1999 Tsutomu Seki.